Location: Newark
(45.7667°N, 11.5167°E)
Time: 19:29:33
(UTC+00:00)

Envisat - Visible Passes

Search period start: 24 January 2020 00:00
Search period end: 03 February 2020 00:00
Orbit: 764 x 766 km, 98.1° (Epoch: 24 January)

Date Brightness Start Highest point End Pass type
(mag) Time Alt. Az. Time Alt. Az. Time Alt. Az.
24 Jan 5.1 05:10:57 10° NE 05:15:23 29° E 05:19:47 10° SSE visible
24 Jan 5.5 18:07:44 10° SW 18:11:43 23° W 18:15:44 10° NW visible
25 Jan 6.2 04:35:37 10° ENE 04:38:13 14° E 04:40:48 10° ESE visible
25 Jan 4.1 17:29:48 10° S 17:34:41 48° W 17:39:37 10° NNW visible
26 Jan 4.1 05:36:04 10° NNE 05:41:01 49° E 05:45:56 10° S visible
26 Jan 3.0 16:52:47 10° SSE 16:57:51 81° ENE 17:02:58 10° NNW visible
26 Jan 6.2 18:35:03 10° WSW 18:37:31 13° W 18:39:59 10° WNW visible
27 Jan 5.5 04:59:55 10° NE 05:04:00 24° E 05:08:02 10° SE visible
27 Jan 5.1 17:55:59 10° SSW 18:00:20 28° W 18:04:43 10° NW visible
28 Jan 6.4 04:25:32 10° ENE 04:26:45 11° E 04:27:59 10° E visible
28 Jan 3.1 06:01:26 10° NNE 06:06:33 84° ESE 06:11:38 10° SSW visible
28 Jan 3.6 17:18:21 10° S 17:23:21 60° W 17:28:25 10° NNW visible
29 Jan 4.6 05:24:54 10° NNE 05:29:41 39° E 05:34:25 10° SSE visible
29 Jan 3.0 16:41:34 10° SSE 16:46:35 65° ENE 16:51:39 10° N visible
29 Jan 5.9 18:22:49 10° SW 18:26:05 17° W 18:29:21 10° NW visible
30 Jan 5.9 04:49:00 10° NE 04:52:35 19° E 04:56:09 10° SE visible
30 Jan 4.7 17:44:19 10° SSW 17:48:57 35° W 17:53:37 10° NNW visible
31 Jan 3.5 05:50:10 10° NNE 05:55:15 68° ESE 06:00:18 10° S visible
31 Jan 3.3 17:06:58 10° S 17:12:02 75° WSW 17:17:09 10° NNW visible
01 Feb 5.0 05:13:46 10° NNE 05:18:19 32° E 05:22:49 10° SSE visible
01 Feb 5.6 18:10:51 10° SW 18:14:40 21° W 18:18:30 10° NW visible
02 Feb 6.2 04:38:15 10° NE 04:41:10 15° E 04:44:04 10° SE visible
02 Feb 4.3 17:32:46 10° S 17:37:37 44° W 17:42:28 10° NNW visible
